Tracking 28126 objects as of 1-Oct-2023
HD Live streaming from Space Station
objects crossing your sky now

COSMOS 839 DEB

Track COSMOS 839 DEB now!
10-day predictions


NORAD ID: 12332
Int'l Code: 1976-067AY
Perigee: 977.4 km
Apogee: 2,115.5 km
Inclination: 66.1 °
Period: 116.9 minutes
Semi major axis: 7917 km
RCS: 0.1559 m2 (medium)
Launch date: July 8, 1976
Source: Commonwealth of Independent States (former USSR) (CIS)
Launch site: PLESETSK MISSILE AND SPACE COMPLEX (PKMTR)

Note: This is SATELLITE DEBRIS
Your satellite tracking list
Your tracking list is empty




NASA's NSSDC Master Catalog

Two Line Element Set (TLE):
1 12332U 76067AY  23274.20108670 -.00000042  00000-0  36714-4 0  9991
2 12332  66.0566 290.2419 0718746 147.0711 300.0354 12.32333180971090
Source of the keplerian elements: AFSPC